Location: Boca do Mato
(22.9085°S, 43.2930°W)
Time: 22:38:53
(UTC+00:00)

NOAA 12 - Pass Details

Date: 14 July 2020
Orbit: 795 x 815 km, 98.5° (Epoch: 10 August)

Event Time Altitude Azimuth Distance (km) Brightness Sun altitude
Rises 08:44:56 0° 12° (NNE) 3,289 7.7 -11.3°
Reaches altitude 10° 08:47:14 10° 11° (NNE) 2,364 7.0 -10.8°
Maximum altitude 08:52:28 85° 282° (WNW) 807 4.1 -9.7°
Drops below altitude 10° 08:57:45 10° 193° (SSW) 2,383 6.2 -8.5°
Sets 09:00:06 0° 193° (SSW) 3,319 7.0 -8.0°
